Weather Roundup
Issued by NWS Springfield, MO

Home | Current Version | Previous Version | Text Only | Print | Product List | Glossary On
Versions: 1 2 3 4 5 6 7 8 9 10 11 12 13 14 15 16 17 18 19 20 21 22 23 24 25 26 27 28 29 30 31 32 33 34 35 36 37 38 39 40 41 42 43 44 45 46 47 48 49 50
000
NZUS99 KSGF 092307
HRRSGF

HOURLY WEATHER
NATIONAL WEATHER SERVICE SPRINGFIELD MO
600 PM CDT WED JUL 09 2014

......SGF CWA......

CITY           SKY/WX    TMP DP  RH WIND       PRES   REMARKS
SPRINGFIELD    SUNNY     83  57  41 NW8       30.04F
JOPLIN         SUNNY     85  57  38 N8        30.03S
WEST PLAINS    SUNNY     83  61  47 N5        30.05S
ROLLA          SUNNY     81  58  45 NW12      30.02S
OSAGE BEACH    MOSUNNY   81  61  50 N7        30.02F
BRANSON        MOSUNNY   88  57  35 NW7       30.05F

......SURROUNDING SGF CWA......

CITY           SKY/WX    TMP DP  RH WIND       PRES   REMARKS
CHANUTE        SUNNY     85  57  38 E5        30.02F
PARSONS        SUNNY     86  60  41 VRB3      30.02F
COFFEYVILLE    SUNNY     90  55  30 VRB3      30.00F
EMPORIA        SUNNY     86  57  37 SE3       30.01F
GROVE OK       SUNNY     86  61  42 CALM      30.03S
ROGERS AR      SUNNY     82  60  47 N6        30.05S
SILOAM SPRINGS MOSUNNY   84  61  45 NE6       30.04S
HARRISON AR    SUNNY     84  58  40 N5        30.04F
NEAR YELLVILLE   N/A     86  59  39 N3        30.02S

......KANSAS AND MISSOURI......

CITY           SKY/WX    TMP DP  RH WIND       PRES   REMARKS
KANSAS CTY INT MOSUNNY   82  58  43 NE6       30.03F
DOWNTOWN KC    SUNNY     85  61  44 N3        30.01F
COLUMBIA       MOSUNNY   82  56  40 NW12      30.04S
SEDALIA        SUNNY     80  64  58 N7        30.04F
ST JOSEPH      SUNNY     82  61  48 E3        30.02F
ST LOUIS       MOSUNNY   82  58  43 N10       30.01R
SPIRIT OF STL  MOSUNNY   83  57  41 NW9       29.99S
KIRKSVILLE     SUNNY     79  59  50 N8        30.05F
WICHITA        MOSUNNY   88  58  36 SE13      29.99F
TOPEKA         MOSUNNY   86  57  37 NE3       30.01F
OLATHE         SUNNY     83  61  47 NE6       30.02F

......TENNESSEE......

CITY           SKY/WX    TMP DP  RH WIND       PRES   REMARKS
MEMPHIS        PTSUNNY   84  71  65 SW5       29.99F
NASHVILLE      PTSUNNY   87  65  47 NW7       29.97S

......ARKANSAS.......

CITY           SKY/WX    TMP DP  RH WIND       PRES   REMARKS
FAYETTEVILLE   MOSUNNY   83  63  50 CALM      30.02F
FT SMITH       MOSUNNY   85  68  56 SW5       29.98F
LITTLE ROCK    PTSUNNY   86  66  51 S5        29.98F

......OKLAHOMA.......

CITY           SKY/WX    TMP DP  RH WIND       PRES   REMARKS
TULSA          MOSUNNY   92  55  28 NE9       29.97S HX  90
PONCA CITY     SUNNY     91  58  32 SE13      29.98F HX  90
MCALESTER      SUNNY     85  68  56 E3        30.01S
OKLAHOMA CITY  PTSUNNY   87  67  51 S9        30.01F HX  90

......IOWA............

CITY           SKY/WX    TMP DP  RH WIND       PRES   REMARKS
DES MOINES     MOSUNNY   81  55  40 NW9       30.02F
QUAD CITIES    PTSUNNY   77  54  44 NW9       30.01S

......ILLINOIS........

CITY           SKY/WX    TMP DP  RH WIND       PRES   REMARKS
QUINCY         MOSUNNY   77  55  46 N9        30.03S
CHICAGO        MOSUNNY   78  47  33 NW12      29.98R




USA.gov is the U.S. government's official web portal to all federal, state and local government web resources and services.